Simultaneous Nadir Overpasses (SNOs) Predictions

Prediction of SNOs between LANDSAT-8 and METOP-B Satellite Orbit:

Table of predicted SNOs for the next 14.0 days since TLE Epoch: 9/16/2023
Index Date (LANDSAT-8) Time (LANDSAT-8) Lat,Lon (LANDSAT-8) SZA (LANDSAT-8 ) Date (METOP-B) Time (METOP-B) Lat,Lon (METOP-B) SZA (METOP-B ) Distance(km) Time Diff (sec)
1 09/16/2023 20:30:07 -81.22, 94.03 98.94 09/16/2023 20:28:58 -81.22, 93.89 98.99 2.32 69
2 09/16/2023 21:19:32 81.25, -97.84 81.15 09/16/2023 21:19:36 81.25, -97.74 81.16 1.72 4
3 09/19/2023 16:04:23 -81.21, 160.37 97.85 09/19/2023 16:03:17 -81.21, 160.18 97.90 3.16 66
4 09/19/2023 16:53:48 81.24, -31.53 82.24 09/19/2023 16:53:55 81.24, -31.48 82.25 0.78 7
5 09/22/2023 11:38:38 -81.22,-133.15 96.73 09/22/2023 11:37:35 -81.22,-133.24 96.76 1.52 63
6 09/22/2023 12:28:03 81.24, 34.93 83.36 09/22/2023 12:28:13 81.24, 35.07 83.38 2.43 10
7 09/25/2023 07:12:51 -81.23, -66.51 95.58 09/25/2023 07:11:51 -81.23, -66.36 95.59 2.68 60
8 09/25/2023 08:02:16 81.25, 101.54 84.50 09/25/2023 08:02:30 81.25, 101.54 84.50 0.63 14
9 09/28/2023 02:47:05 -81.23, -0.10 94.47 09/28/2023 02:46:09 -81.23, 0.06 94.48 2.74 56



Historial Predications of SNOs between LANDSAT-8 and METOP-B
